FW7441 Weather Reports


time (UTC)temp
F
wind
direction
speed
knots
gust
knots
rain 1hr
in
rain 24hr
in
rain mn
in
humidity
%
barometer
mb
20260902224601 91 227 0.9 0.9 0.00 0.00 0.00 68 1012.4
20260902224056 91 205 0.0 0.0 0.00 0.00 0.00 67 1012.5
20260902223553 90 186 0.9 0.9 0.00 0.00 0.00 67 1012.5
20260902223052 91 143 0.9 1.7 0.00 0.00 0.00 66 1012.6
20260902222550 91 202 1.7 1.7 0.00 0.00 0.00 65 1012.6
20260902222049 91 237 1.7 1.7 0.00 0.00 0.00 66 1012.8
20260902221544 91 169 1.7 2.6 0.00 0.00 0.00 64 1012.5
20260902221039 92 221 0.0 1.7 0.00 0.00 0.00 64 1012.6
20260902220534 93 298 0.0 0.9 0.00 0.00 0.00 62 1012.8
20260902220029 93 202 0.0 0.0 0.00 0.00 0.00 60 1012.6
20260902215525 92 253 0.9 0.9 0.00 0.00 0.00 61 1012.5
20260902215020 92 231 0.9 0.9 0.00 0.00 0.00 60 1012.6
20260902214520 92 288 2.6 2.6 0.00 0.00 0.00 58 1012.5
20260902214019 93 257 2.6 2.6 0.00 0.00 0.00 58 1012.8
20260902213515 93 270 1.7 1.7 0.00 0.00 0.00 58 1012.9
20260902213014 94 217 0.9 1.7 0.00 0.00 0.00 58 1012.5
20260902212510 94 242 1.7 2.6 0.00 0.00 0.00 61 1012.6
20260902212006 92 222 1.7 1.7 0.00 0.00 0.00 61 1012.8
20260902211502 92 268 0.9 0.9 0.00 0.00 0.00 62 1012.8
20260902210956 93 350 2.6 4.3 0.00 0.00 0.00 60 1013.0
20260902210457 95 252 6.1 12.2 0.00 0.00 0.00 57 1012.8
20260902205955 95 235 1.7 2.6 0.00 0.00 0.00 60 1012.8
20260902205450 95 128 1.7 2.6 0.00 0.00 0.00 60 1012.9
20260902204946 94 249 0.0 0.0 0.00 0.00 0.00 60 1012.8
20260902204445 94 215 1.7 2.6 0.00 0.00 0.00 60 1012.9
20260902203941 95 219 1.7 1.7 0.00 0.00 0.00 59 1012.8
20260902203436 95 213 4.3 6.1 0.00 0.00 0.00 59 1012.5
20260902202935 96 262 0.9 0.9 0.00 0.00 0.00 57 1012.8
20260902202431 96 267 3.5 5.2 0.00 0.00 0.00 57 1013.0
20260902201928 95 208 2.6 2.6 0.00 0.00 0.00 56 1012.9
20260902201423 94 236 1.7 1.7 0.00 0.00 0.00 62 1012.8
20260902200923 93 180 1.7 1.7 0.00 0.00 0.00 61 1013.0
20260902200418 94 345 0.9 0.9 0.00 0.00 0.00 60 1013.2
20260902195913 94 222 0.9 1.7 0.00 0.00 0.00 62 1013.1
20260902195408 94 300 2.6 5.2 0.00 0.00 0.00 62 1013.1
20260902194903 95 217 0.9 0.9 0.00 0.00 0.00 62 1013.2
20260902194402 94 240 2.6 4.3 0.00 0.00 0.00 62 1013.0
20260902193857 95 206 1.7 2.6 0.00 0.00 0.00 59 1013.0
20260902193354 95 296 1.7 1.7 0.00 0.00 0.00 61 1013.2
20260902192852 94 252 0.9 0.9 0.00 0.00 0.00 63 1013.1
20260902192351 95 177 0.9 1.7 0.00 0.00 0.00 62 1013.2
20260902191845 95 255 0.9 0.9 0.00 0.00 0.00 59 1013.3
20260902191341 93 242 0.0 0.9 0.00 0.00 0.00 63 1013.4
20260902190836 93 270 1.7 2.6 0.00 0.00 0.00 60 1013.5
20260902190335 94 168 2.6 4.3 0.00 0.00 0.00 57 1013.4
20260902185832 94 227 0.9 0.9 0.00 0.00 0.00 60 1013.5
20260902185326 94 271 1.7 2.6 0.00 0.00 0.00 62 1013.4
20260902184822 95 214 1.7 1.7 0.00 0.00 0.00 63 1013.5
20260902184318 94 100 2.6 4.3 0.00 0.00 0.00 61 1013.6
20260902183813 94 255 2.6 4.3 0.00 0.00 0.00 61 1013.7
20260902183309 94 222 1.7 2.6 0.00 0.00 0.00 59 1013.9
20260902182805 94 196 4.3 5.2 0.00 0.00 0.00 60 1013.7
20260902182305 93 152 0.9 0.9 0.00 0.00 0.00 64 1013.8
20260902181757 93 221 2.6 2.6 0.00 0.00 0.00 65 1013.6
20260902181252 94 114 0.9 0.9 0.00 0.00 0.00 63 1013.8
20260902180746 93 185 1.7 1.7 0.00 0.00 0.00 63 1013.7
20260902180242 93 145 0.9 1.7 0.00 0.00 0.00 62 1013.8
20260902175737 93 227 4.3 7.0 0.00 0.00 0.00 63 1013.7
20260902175233 93 168 0.9 1.7 0.00 0.00 0.00 63 1013.8
20260902174728 92 225 0.9 1.7 0.00 0.00 0.00 64 1014.0
20260902174224 92 232 0.9 0.9 0.00 0.00 0.00 63 1013.8
20260902173720 94 134 0.9 0.9 0.00 0.00 0.00 63 1013.8
20260902173220 93 187 0.9 0.9 0.00 0.00 0.00 64 1013.8
20260902172714 92 177 0.9 1.7 0.00 0.00 0.00 64 1013.9
20260902172214 92 97 1.7 1.7 0.00 0.00 0.00 63 1014.0
20260902171709 92 228 1.7 1.7 0.00 0.00 0.00 65 1013.9
20260902171205 92 223 3.5 5.2 0.00 0.00 0.00 63 1014.1
20260902170701 92 166 0.0 1.7 0.00 0.00 0.00 66 1014.0
20260902170155 92 216 1.7 2.6 0.00 0.00 0.00 65 1013.9
20260902165650 91 229 2.6 5.2 0.00 0.00 0.00 64 1014.1
20260902165144 91 199 1.7 2.6 0.00 0.00 0.00 67 1014.4
20260902164640 91 209 0.9 0.9 0.00 0.00 0.00 66 1014.1
20260902164138 91 227 0.9 0.9 0.00 0.00 0.00 67 1014.3
20260902163634 91 156 2.6 2.6 0.00 0.00 0.00 66 1014.1
20260902163133 90 226 0.9 0.9 0.00 0.00 0.00 68 1014.5
20260902162632 90 229 1.7 1.7 0.00 0.00 0.00 67 1014.4
20260902162126 90 192 1.7 1.7 0.00 0.00 0.00 67 1014.4
20260902161622 89 197 0.9 1.7 0.00 0.00 0.00 72 1014.4
20260902161118 89 231 0.9 1.7 0.00 0.00 0.00 68 1014.4
20260902160614 90 235 0.9 0.9 0.00 0.00 0.00 69 1014.4
20260902160109 89 134 0.9 0.9 0.00 0.00 0.00 71 1014.6
20260902155607 88 220 0.9 1.7 0.00 0.00 0.00 69 1014.4
20260902155106 88 233 0.9 0.9 0.00 0.00 0.00 69 1014.8
20260902154602 89 174 0.9 1.7 0.00 0.00 0.00 69 1014.5
20260902154056 88 210 0.0 0.9 0.00 0.00 0.00 72 1014.5
20260902153554 88 179 0.0 0.0 0.00 0.00 0.00 71 1014.7
20260902153050 87 135 0.9 1.7 0.00 0.00 0.00 75 1014.7
20260902152547 87 235 0.9 0.9 0.00 0.00 0.00 73 1014.5
20260902152042 87 175 0.9 0.9 0.00 0.00 0.00 72 1014.3
20260902151538 87 196 0.9 0.9 0.00 0.00 0.00 73 1014.6
20260902151037 86 215 0.9 0.9 0.00 0.00 0.00 73 1014.7
20260902150532 86 165 0.9 0.9 0.00 0.00 0.00 72 1014.4
20260902150027 86 133 0.0 0.9 0.00 0.00 0.00 74 1014.6
20260902145517 84 254 1.7 1.7 0.00 0.00 0.00 75 1015.0
20260902145017 85 233 0.9 1.7 0.00 0.00 0.00 74 1014.7
20260902144514 86 215 0.0 0.9 0.00 0.00 0.00 75 1014.9
20260902144013 85 208 0.9 0.9 0.00 0.00 0.00 76 1014.9
20260902143509 84 272 1.7 1.7 0.00 0.00 0.00 76 1015.0
20260902143004 84 251 0.0 0.9 0.00 0.00 0.00 77 1014.9
20260902142500 83 33 0.9 0.9 0.00 0.00 0.00 77 1015.0
20260902141955 82 138 0.0 0.0 0.00 0.00 0.00 79 1014.6
20260902141449 82 219 0.9 0.9 0.00 0.00 0.00 80 1014.9
20260902140943 80 219 0.9 1.7 0.00 0.00 0.00 81 1014.9
20260902140439 80 228 0.0 0.0 0.00 0.00 0.00 84 1015.1
20260902135938 81 223 1.7 1.7 0.00 0.00 0.00 82 1015.0
20260902135435 81 233 0.0 0.0 0.00 0.00 0.00 82 1015.0
20260902134933 81 156 0.0 0.0 0.00 0.00 0.00 82 1015.1
20260902134430 81 203 0.0 0.0 0.00 0.00 0.00 81 1015.2
20260902133924 82 274 0.9 0.9 0.00 0.00 0.00 80 1015.3
20260902133419 82 303 0.9 1.7 0.00 0.00 0.00 79 1015.5
20260902132914 80 320 0.0 0.0 0.00 0.00 0.00 82 1015.0
20260902132409 80 256 0.9 1.7 0.00 0.00 0.00 81 1015.1
20260902131904 79 300 0.0 0.0 0.00 0.00 0.00 83 1015.2
20260902131401 79 180 2.6 2.6 0.00 0.00 0.00 82 1014.9
20260902130900 79 123 0.9 1.7 0.00 0.00 0.00 83 1015.9
20260902130356 79 258 0.0 0.0 0.00 0.00 0.00 83 1015.2
20260902125850 79 233 2.6 2.6 0.00 0.00 0.00 82 1015.0
20260902125347 80 266 0.9 0.9 0.00 0.00 0.00 82 1015.5
20260902124843 79 225 0.9 2.6 0.00 0.00 0.00 82 1014.9
20260902124339 79 277 0.0 0.9 0.00 0.00 0.00 82 1014.6
20260902123833 79 256 0.9 0.9 0.00 0.00 0.00 83 1014.6
20260902123330 78 204 1.7 2.6 0.00 0.00 0.00 83 1014.7
20260902122828 78 166 0.9 1.7 0.00 0.00 0.00 84 1014.8
20260902122324 78 161 0.0 0.0 0.00 0.00 0.00 84 1014.8
20260902121824 78 157 0.9 1.7 0.00 0.00 0.00 84 1014.8
20260902121319 78 237 0.9 0.9 0.00 0.00 0.00 85 1015.0
20260902120814 77 232 0.9 0.9 0.00 0.00 0.00 85 1014.5
20260902120311 77 214 0.9 0.9 0.00 0.00 0.00 85 1014.6
20260902115805 77 183 0.0 0.0 0.00 0.00 0.00 86 1014.7
20260902115306 77 218 0.9 0.9 0.00 0.00 0.00 86 1014.5
20260902114757 77 186 1.7 4.3 0.00 0.00 0.00 87 1014.2
20260902114253 77 179 0.9 0.9 0.00 0.00 0.00 88 1014.4
20260902113748 77 232 1.7 1.7 0.00 0.00 0.00 88 1014.4
20260902113243 76 207 1.7 2.6 0.00 0.00 0.00 88 1014.4
20260902112742 77 230 0.0 0.0 0.00 0.00 0.00 88 1014.5
20260902112240 77 171 0.0 0.9 0.00 0.00 0.00 88 1014.2
20260902111735 76 192 0.0 0.9 0.00 0.00 0.00 88 1014.4
20260902111231 77 227 0.9 0.9 0.00 0.00 0.00 88 1014.4
20260902110726 76 213 0.9 0.9 0.00 0.00 0.00 87 1014.2
20260902110222 76 211 1.7 1.7 0.00 0.00 0.00 88 1014.3
20260902105721 76 194 0.9 0.9 0.00 0.00 0.00 88 1014.3
20260902105217 76 163 0.9 0.9 0.00 0.00 0.00 89 1014.4
20260902104712 76 164 1.7 1.7 0.00 0.00 0.00 89 1014.6
20260902104209 76 231 0.9 0.9 0.00 0.00 0.00 89 1014.1
20260902103708 76 178 0.9 0.9 0.00 0.00 0.00 89 1014.3
20260902103202 76 213 0.0 0.0 0.00 0.00 0.00 89 1014.6
20260902102658 76 232 0.0 0.0 0.00 0.00 0.00 89 1014.3
20260902102156 76 183 0.0 0.0 0.00 0.00 0.00 89 1014.6
20260902101650 76 232 0.9 1.7 0.00 0.00 0.00 89 1014.6
20260902101150 77 232 0.0 0.9 0.00 0.00 0.00 89 1014.6
20260902100645 77 207 0.0 0.9 0.00 0.00 0.00 89 1014.5
20260902100139 77 309 0.9 0.9 0.00 0.00 0.00 89 1014.5
20260902095639 76 210 0.0 0.0 0.00 0.00 0.00 89 1014.4
20260902095138 77 218 0.0 0.0 0.00 0.00 0.00 89 1014.5
20260902094633 77 202 0.9 0.9 0.00 0.00 0.00 89 1014.6
20260902094130 77 185 1.7 2.6 0.00 0.00 0.00 89 1014.5
20260902093623 77 171 0.0 0.9 0.00 0.00 0.00 89 1014.5
20260902093118 77 208 0.0 0.0 0.00 0.00 0.00 89 1014.7
20260902092613 77 178 0.9 0.9 0.00 0.00 0.00 89 1014.6
20260902092108 77 190 0.0 0.9 0.00 0.00 0.00 89 1014.6
20260902091603 77 208 0.0 0.9 0.00 0.00 0.00 89 1014.5
20260902091059 77 220 0.0 0.0 0.00 0.00 0.00 89 1014.6
20260902090555 77 196 0.0 0.9 0.00 0.00 0.00 89 1014.5
20260902090053 77 185 1.7 1.7 0.00 0.00 0.00 89 1014.3
20260902085548 77 282 1.7 1.7 0.00 0.00 0.00 90 1014.6
20260902085043 77 202 0.0 0.0 0.00 0.00 0.00 90 1014.5
20260902084539 77 175 0.9 0.9 0.00 0.00 0.00 89 1014.4
20260902084035 77 208 0.0 0.0 0.00 0.00 0.00 89 1014.3
20260902083525 77 187 0.9 1.7 0.00 0.00 0.00 89 1014.4
20260902083025 77 223 0.0 0.9 0.00 0.00 0.00 89 1014.4
20260902082520 77 206 0.9 0.9 0.00 0.00 0.00 89 1014.5
20260902082017 78 175 0.0 0.0 0.00 0.00 0.00 89 1014.3
20260902081513 78 182 0.0 0.0 0.00 0.00 0.00 88 1014.2
20260902081012 78 217 0.0 0.0 0.00 0.00 0.00 88 1014.2
20260902080509 78 218 0.0 0.9 0.00 0.00 0.00 88 1014.4
20260902080004 78 195 1.7 1.7 0.00 0.00 0.00 88 1014.3
20260902075459 78 196 0.0 0.9 0.00 0.00 0.00 87 1014.4
20260902074954 78 271 0.9 1.7 0.00 0.00 0.00 88 1014.3
20260902074449 78 208 0.0 0.9 0.00 0.00 0.00 88 1014.2
20260902073944 78 205 0.0 0.0 0.00 0.00 0.00 87 1014.4
20260902073440 78 175 0.9 0.9 0.00 0.00 0.00 87 1014.5
20260902072936 78 189 0.9 0.9 0.00 0.00 0.00 87 1014.5
20260902072432 78 237 0.9 0.9 0.00 0.00 0.00 87 1014.3
20260902071928 78 163 0.9 1.7 0.00 0.00 0.00 88 1014.3
20260902071427 78 163 0.9 1.7 0.00 0.00 0.00 88 1014.4
20260902070924 78 200 0.0 0.0 0.00 0.00 0.00 88 1014.4
20260902070420 78 200 0.0 0.9 0.00 0.00 0.00 88 1014.2
20260902065918 78 243 1.7 1.7 0.00 0.00 0.00 88 1014.3
20260902065413 78 206 0.0 0.0 0.00 0.00 0.00 88 1014.2
20260902064908 78 222 0.9 0.9 0.00 0.00 0.00 88 1014.3
20260902064404 78 174 0.9 0.9 0.00 0.00 0.00 88 1014.5
20260902063900 78 158 0.9 0.9 0.00 0.00 0.00 88 1014.4
20260902063354 79 199 0.0 0.0 0.00 0.00 0.00 88 1014.5
20260902062854 79 237 0.0 0.0 0.00 0.00 0.00 88 1014.4
20260902062354 79 221 0.0 0.0 0.00 0.00 0.00 88 1014.7
20260902061853 79 212 0.9 0.9 0.00 0.00 0.00 88 1014.7
20260902061349 79 197 0.0 0.9 0.00 0.00 0.00 87 1014.4
20260902060845 79 232 0.9 0.9 0.00 0.00 0.00 87 1014.4
20260902060340 79 227 1.7 2.6 0.00 0.00 0.00 87 1014.5
20260902055836 80 186 1.7 1.7 0.00 0.00 0.00 87 1014.1
20260902055332 80 185 0.9 1.7 0.00 0.00 0.00 87 1014.3
20260902054827 80 161 0.9 1.7 0.00 0.00 0.00 87 1014.5
20260902054323 80 239 3.5 4.3 0.00 0.00 0.00 87 1014.5
20260902053818 80 212 0.9 0.9 0.00 0.00 0.00 87 1014.4
20260902053313 80 221 1.7 1.7 0.00 0.00 0.00 88 1014.2
20260902052812 80 166 0.9 0.9 0.00 0.00 0.00 88 1014.3
20260902052308 80 192 0.9 1.7 0.00 0.00 0.00 88 1014.4
20260902051802 80 196 0.0 0.9 0.00 0.00 0.00 88 1014.5
20260902051301 80 211 0.9 1.7 0.00 0.00 0.00 88 1014.2
20260902050757 80 192 0.0 0.9 0.00 0.00 0.00 88 1014.4
20260902050251 80 203 0.0 0.0 0.00 0.00 0.00 88 1014.3
20260902045751 80 220 0.0 0.0 0.00 0.00 0.00 88 1014.3
20260902045247 80 242 0.9 0.9 0.00 0.00 0.00 88 1014.4
20260902044743 80 217 0.0 0.0 0.00 0.00 0.00 87 1014.3
20260902044238 80 225 1.7 1.7 0.00 0.00 0.00 87 1014.4
20260902043733 80 354 1.7 2.6 0.00 0.00 0.00 87 1014.3
20260902043229 80 165 0.9 1.7 0.00 0.00 0.00 87 1014.2
20260902042728 81 171 0.9 0.9 0.00 0.00 0.00 87 1014.4
20260902042223 81 205 0.9 1.7 0.00 0.00 0.00 86 1014.2
20260902041718 81 154 1.7 1.7 0.00 0.00 0.00 86 1014.3
20260902041213 81 204 0.9 1.7 0.00 0.00 0.00 86 1014.3
20260902040712 81 165 0.9 1.7 0.00 0.00 0.00 86 1014.4
20260902040208 81 195 0.0 0.9 0.00 0.00 0.00 86 1014.4
20260902035706 82 201 0.9 1.7 0.00 0.00 0.00 85 1014.3
20260902035202 82 212 0.9 0.9 0.00 0.00 0.00 85 1014.2
20260902034701 82 154 0.9 0.9 0.00 0.00 0.00 85 1014.5
20260902034200 82 213 1.7 4.3 0.00 0.00 0.00 85 1014.3
20260902033659 82 232 2.6 4.3 0.00 0.00 0.00 86 1014.5
20260902033154 82 205 0.0 0.0 0.00 0.00 0.00 86 1014.6
20260902032653 82 214 0.9 0.9 0.00 0.00 0.00 86 1014.5
20260902032148 82 251 0.9 0.9 0.00 0.00 0.00 87 1014.6
20260902031642 82 221 0.9 0.9 0.00 0.00 0.00 86 1014.6
20260902031138 82 184 0.9 0.9 0.00 0.00 0.00 86 1014.4
20260902030634 82 189 0.0 0.9 0.00 0.00 0.00 87 1014.7
20260902030133 82 222 0.9 4.3 0.00 0.00 0.00 87 1014.8
20260902025632 82 242 1.7 1.7 0.00 0.00 0.00 87 1014.7
20260902025128 82 234 1.7 1.7 0.00 0.00 0.00 88 1014.5
20260902024623 82 137 1.7 2.6 0.00 0.00 0.00 88 1014.8
20260902024118 82 184 0.0 0.9 0.00 0.00 0.00 88 1014.5
20260902023614 82 222 0.9 1.7 0.00 0.00 0.00 89 1014.4
20260902023108 82 207 0.0 0.9 0.00 0.00 0.00 89 1014.5
20260902022608 82 198 0.0 0.9 0.00 0.00 0.00 89 1014.4
20260902022104 82 204 0.9 0.9 0.00 0.00 0.00 89 1014.5
20260902021559 81 219 1.7 1.7 0.00 0.00 0.00 89 1014.8
20260902021054 81 225 0.0 0.0 0.00 0.00 0.00 89 1014.3
20260902020550 82 212 0.0 0.0 0.00 0.00 0.00 89 1014.6
20260902020046 82 214 0.0 0.0 0.00 0.00 0.00 88 1014.5
20260902015541 82 204 0.9 0.9 0.00 0.00 0.00 88 1014.5
20260902015037 82 194 0.0 0.0 0.00 0.00 0.00 87 1014.5
20260902014533 82 196 0.0 0.0 0.00 0.00 0.00 87 1014.2
20260902014028 83 255 0.9 0.9 0.00 0.00 0.00 87 1014.2
20260902013527 83 196 0.0 0.0 0.00 0.00 0.00 86 1014.2
20260902013023 83 186 0.0 0.9 0.00 0.00 0.00 86 1014.1
20260902012518 83 222 0.0 0.0 0.00 0.00 0.00 87 1014.0
20260902012014 83 183 0.0 0.0 0.00 0.00 0.00 87 1014.0
20260902011509 83 195 0.0 0.9 0.00 0.00 0.00 88 1014.1
20260902011009 83 204 0.0 0.0 0.00 0.00 0.00 88 1013.7
20260902010509 83 207 0.0 0.0 0.00 0.00 0.00 88 1013.9
20260902010004 83 207 0.0 0.0 0.00 0.00 0.00 88 1013.6
20260902005502 83 207 0.0 0.0 0.00 0.00 0.00 87 1013.6
20260902004959 84 207 0.0 0.0 0.00 0.00 0.00 87 1013.5
20260902004458 84 206 0.0 0.0 0.00 0.00 0.00 86 1013.5
20260902003954 84 206 0.0 0.0 0.00 0.00 0.00 86 1013.6
20260902003448 84 235 0.0 0.0 0.00 0.00 0.00 85 1013.6
20260902002944 85 211 0.0 0.0 0.00 0.00 0.00 85 1013.4
20260902002439 85 191 0.0 0.0 0.00 0.00 0.00 84 1013.7
20260902001938 86 191 0.0 0.0 0.00 0.00 0.00 83 1013.4
20260902001433 86 215 0.0 0.0 0.00 0.00 0.00 83 1013.5
20260902000928 87 212 0.0 0.0 0.00 0.00 0.00 82 1013.6
20260902000423 87 206 0.9 1.7 0.00 0.00 0.00 82 1013.7
20260901235918 87 200 0.0 0.0 0.00 0.00 0.00 82 1013.4
20260901235413 87 208 0.0 0.0 0.00 0.00 0.00 81 1013.6
20260901234908 88 208 0.0 0.0 0.00 0.00 0.00 80 1013.7
20260901234402 88 205 0.9 0.9 0.00 0.00 0.00 79 1013.7
20260901233857 88 161 0.9 0.9 0.00 0.00 0.00 79 1013.7
20260901233352 88 229 0.9 1.7 0.00 0.00 0.00 79 1013.6
20260901232849 89 199 0.0 0.9 0.00 0.00 0.00 79 1013.6
20260901232343 89 246 0.9 0.9 0.00 0.00 0.00 79 1013.8
20260901231839 89 191 0.9 0.9 0.00 0.00 0.00 78 1013.6
20260901231335 89 240 0.0 0.9 0.00 0.00 0.00 78 1013.6
20260901230831 90 196 0.0 0.0 0.00 0.00 0.00 77 1013.7
20260901230330 90 194 0.0 0.9 0.00 0.00 0.00 77 1013.8
20260901225826 90 181 0.9 0.9 0.00 0.00 0.00 76 1013.8
20260901225325 90 252 1.7 1.7 0.00 0.00 0.00 75 1013.7
20260901224820 91 224 0.9 1.7 0.00 0.00 0.00 75 1013.8